Weather History for Valdosta Regional, GA

Change the Weather History Date:

Saturday, March 9, 2013

  Actual Average Record
Temperature  
Mean Temperature 56 °F 59 °F  
Max Temperature 73 °F 72 °F 82 °F (2002)
Min Temperature 39 °F 46 °F 30 °F (2008)
Degree Days  
Heating Degree Days 9 7  
Month to date heating degree days 136 68  
Since 1 July heating degree days 1005 1448  
Cooling Degree Days 0 1  
Month to date cooling degree days 0 9  
Year to date cooling degree days 77 19  
Growing Degree Days 6 (Base 50)    
Moisture  
Dew Point 36 °F    
Average Humidity 54    
Maximum Humidity 85    
Minimum Humidity 22    
Precipitation  
Precipitation 0.00 in - 1.83 in (2011)
Month to date precipitation 0.03  
Year to date precipitation 6.18  
Sea Level Pressure  
Sea Level Pressure 30.26 in    
Wind  
Wind Speed 5 mph (East)    
Max Wind Speed 13 mph    
Max Gust Speed 17 mph    
Visibility 9 miles    
Events      
T = Trace of Precipitation, MM = Missing Value Source: NWS Daily Summary

Daily Weather History Graph

Daily Weather History Graph

Search for Another Location

Airport:

Trip Planner

Search our weather history database for the weather conditions in past years. The results will help you decide how hot, cold, wet, or windy it might be!

Date:

Astronomy

Mar. 09, 2013 Rise Set
Actual Time 6:49 AM EST 6:37 PM EST
Civil Twilight 6:25 AM EST 7:01 PM EST
Nautical Twilight 5:58 AM EST 7:29 PM EST
Astronomical Twilight 5:30 AM EST 7:57 PM EST
Moon 5:06 AM EST (3/9) 4:43 PM EST (3/9)
Length of Visible Light 12h 35m
Length of Day
11h 47m
Waning Crescent, 5% of the Moon is Illuminated
Mar 9
Waning Crescent
Mar 11
New
Mar 19
First Quarter
Mar 27
Full
Apr 3
Last Quarter

Hourly Weather History & Observations

Time (EST) Temp. Windchill Dew Point Humidity Pressure Visibility Wind Dir Wind Speed Gust Speed Precip Events Conditions
12:53 AM 50.0 °F - 36.0 °F 59% 30.27 in 10.0 mi Calm Calm - N/A   Clear
1:53 AM 43.0 °F - 35.1 °F 74% 30.27 in 10.0 mi Calm Calm - N/A   Clear
2:53 AM 42.1 °F - 36.0 °F 79% 30.23 in 9.0 mi Calm Calm - N/A   Clear
3:53 AM 43.0 °F - 36.0 °F 76% 30.22 in 10.0 mi Calm Calm - N/A   Clear
4:53 AM 39.9 °F - 35.1 °F 83% 30.25 in 5.0 mi Calm Calm - N/A   Haze
5:53 AM 39.0 °F - 35.1 °F 86% 30.25 in 5.0 mi Calm Calm - N/A   Clear
6:53 AM 42.1 °F 40.2 °F 37.9 °F 85% 30.27 in 7.0 mi NNE 3.5 mph - N/A   Clear
7:53 AM 48.9 °F - 37.0 °F 64% 30.29 in 10.0 mi East 4.6 mph - N/A   Clear
8:53 AM 57.0 °F - 33.1 °F 40% 30.31 in 10.0 mi East 8.1 mph - N/A   Clear
9:53 AM 62.1 °F - 30.0 °F 30% 30.33 in 10.0 mi East 9.2 mph - N/A   Clear
10:53 AM 64.9 °F - 30.9 °F 28% 30.32 in 10.0 mi East 8.1 mph - N/A   Clear
11:53 AM 66.9 °F - 32.0 °F 27% 30.31 in 10.0 mi Variable 5.8 mph - N/A   Clear
12:53 PM 70.0 °F - 33.1 °F 26% 30.29 in 10.0 mi ESE 8.1 mph - N/A   Clear
1:53 PM 72.0 °F - 32.0 °F 23% 30.26 in 10.0 mi NE 8.1 mph - N/A   Clear
2:53 PM 72.0 °F - 30.9 °F 22% 30.24 in 10.0 mi East 9.2 mph - N/A   Clear
3:53 PM 71.1 °F - 33.1 °F 25% 30.24 in 10.0 mi ENE 8.1 mph - N/A   Clear
4:53 PM 72.0 °F - 33.1 °F 24% 30.24 in 10.0 mi ESE 4.6 mph - N/A   Clear
5:53 PM 69.1 °F - 36.0 °F 30% 30.23 in 10.0 mi ENE 5.8 mph - N/A   Clear
6:53 PM 64.9 °F - 37.9 °F 37% 30.23 in 10.0 mi East 3.5 mph - N/A   Clear
7:53 PM 61.0 °F - 39.9 °F 46% 30.25 in 10.0 mi Calm Calm - N/A   Clear
8:53 PM 60.1 °F - 39.9 °F 47% 30.24 in 10.0 mi ESE 6.9 mph - N/A   Clear
9:53 PM 57.9 °F - 43.0 °F 58% 30.26 in 10.0 mi SE 6.9 mph - N/A   Clear
10:53 PM 57.0 °F - 44.1 °F 62% 30.25 in 10.0 mi ESE 5.8 mph - N/A   Clear
11:53 PM 55.0 °F - 43.0 °F 64% 30.24 in 10.0 mi SE 4.6 mph - N/A   Clear